Miscellaneous Local Product
Issued by NWS Hastings, NE

Home | Current Version | Previous Version | Text Only | Print | Product List | Glossary Off
Versions: 1 2 3 4 5 6 7 8 9 10 11 12 13 14 15 16 17 18 19 20 21 22 23 24 25 26 27 28 29 30 31 32 33 34 35 36 37 38 39 40 41 42 43 44 45 46 47 48 49 50

000
AXUS43 KGID 241002
MISGRI

GID CWA HOURLY WEATHER ROUNDUP
NATIONAL WEATHER SERVICE HASTINGS NE
500 AM CDT FRI OCT 24 2014

NOTE: "FAIR" INDICATES FEW OR NO CLOUDS BELOW 12,000 FEET WITH NO
SIGNIFICANT WEATHER AND/OR OBSTRUCTIONS TO VISIBILITY.

...SOUTH CENTRAL NEBRASKA...

CITY           SKY/WX    TMP DP  RH WIND       PRES   REMARKS
GRAND ISLAND   MOCLDY    58  54  86 SW12      29.95F
HASTINGS       MOCLDY    56  53  90 SW7       29.97S FOG
KEARNEY        MOCLDY    52  50  93 S7        29.97F
ORD            MOCLDY    48  47  96 CALM      29.92S FOG
YORK           MOCLDY    57  55  94 SW9       29.96F FOG
AURORA         MOCLDY    56  56 100 SW9       29.96S FOG
LEXINGTON      CLEAR     54  52  94 W3        29.97F
HOLDREGE       MOCLDY    55  53  92 SW9       29.98S FOG
HEBRON         MOCLDY    58  55  91 SW3       30.00R FOG

...NEBRASKA PANHANDLE...

CITY           SKY/WX    TMP DP  RH WIND       PRES   REMARKS
CHADRON        CLOUDY    40  34  79 CALM      29.94S
ALLIANCE       CLOUDY    40  32  73 W9        29.98F WCI  34
SCOTTSBLUFF    CLOUDY    48  37  65 NW6       30.01S
SIDNEY         MOCLDY    46  34  62 W9        30.04F

...WESTERN AND NORTH CENTRAL NEBRASKA...

CITY           SKY/WX    TMP DP  RH WIND       PRES   REMARKS
VALENTINE      CLOUDY    44  37  76 W5        29.92F
AINSWORTH      MOCLDY    46  38  71 CALM      29.91F
ONEILL         MOCLDY    52  50  95 SW7       29.89F
BROKEN BOW     PTCLDY    56  49  77 W7        29.94F
IMPERIAL       PTCLDY    47  38  71 W9        30.01F
NORTH PLATTE   PTCLDY    40  39  97 NW5       29.98F
MCCOOK         CLEAR     51  49  92 W3        30.00F

...EASTERN NEBRASKA...

CITY           SKY/WX    TMP DP  RH WIND       PRES   REMARKS
NORFOLK        MOCLDY    57  54  89 SW8       29.90F
SO SIOUX CITY  MOCLDY    53  50  89 SE8       29.89F
TEKAMAH        PTCLDY    57  54  89 S9        29.93F
COLUMBUS       CLOUDY    57  52  82 SW6       29.94F
ALBION         MOCLDY    55  52  89 S3        29.92S
OMAHA EPPLEY   MOCLDY    56  54  93 S9        29.97S
OFFUTT AFB     MOCLDY    53  53 100 E6        29.97F
MILLARD        PTCLDY    55  53  95 SE3       29.96S FOG
LINCOLN        MOCLDY    61  58  90 S12       29.97F
NEBRASKA CITY  PTCLDY    56  56 100 S8        30.00R FOG
BEATRICE       MOCLDY    58  57  97 S8        29.99F FOG
FALLS CITY     CLOUDY    59  58  96 S9        30.01S FOG

...NORTHERN KANSAS...

CITY           SKY/WX    TMP DP  RH WIND       PRES   REMARKS
GOODLAND       CLEAR     54  45  71 SW14      30.06F
HILL CITY      PTCLDY    55  53  93 W7        30.01F
NORTON         SUNNY     50  48  93 CALM      29.99S FOG
PHILLIPSBURG   FOG       54  54 100 CALM      30.00S VSB 1/2
SMITH CENTER   FOG       52  52 100 S3        30.01S VSB 3/4
BELOIT           N/A     55  55 100 CALM      29.99S VSB 3/4
HAYS           PTCLDY    55  50  82 SW3       30.02S VSB 1
RUSSELL        PTCLDY    59  57  93 S13       30.00S
CONCORDIA      PTCLDY    59  58  96 S9        30.00S FOG
SALINA         CLEAR     60  57  89 S10       30.01F
TOPEKA         MOCLDY    59  58  96 S6        30.04F FOG



USA.gov is the U.S. government's official web portal to all federal, state and local government web resources and services.